Bloomington, IN

12:55 PM EDT on April 25, 2018 (GMT -0400)
Monroe County

Weather History for KBMG - September, 2014

Change the Weather History Date:

Friday, September 19, 2014

  Actual Average Record
Temperature  
Mean Temperature 60 °F 64 °F  
Max Temperature 74 °F 77 °F 88 °F (2002)
Min Temperature 45 °F 52 °F 39 °F (2012)
Degree Days  
Heating Degree Days 5 3  
Month to date heating degree days 68 24  
Since 1 July heating degree days 74 31  
Cooling Degree Days 0 2  
Month to date cooling degree days 56 78  
Year to date cooling degree days 886 895  
Growing Degree Days 10 (Base 50)    
Moisture  
Dew Point 48 °F    
Average Humidity 69    
Maximum Humidity 100    
Minimum Humidity 38    
Precipitation  
Precipitation 0.00 in 0.10 in 1.60 in (2005)
Month to date precipitation 4.03 2.06  
Year to date precipitation 34.66 35.25  
Sea Level Pressure  
Sea Level Pressure 30.12 in    
Wind  
Wind Speed 4 mph (SE)    
Max Wind Speed 15 mph    
Max Gust Speed 19 mph    
Visibility 7 miles    
Events      
T = Trace of Precipitation, MM = Missing Value Source: NWS Daily Summary

Daily Weather History Graph

Daily Weather History Graph

Search for Another Location

Airport or City:

Astronomy

Sep. 19, 2014 Rise Set
Actual Time 7:31 AM EDT 7:48 PM EDT
Civil Twilight 7:04 AM EDT 8:15 PM EDT
Nautical Twilight 6:33 AM EDT 8:46 PM EDT
Astronomical Twilight 6:01 AM EDT 9:18 PM EDT
Moon 3:17 AM EDT (9/19) 5:15 PM EDT (9/19)
Length of Visible Light 13h 10m
Length of Day
12h 16m
Waning Crescent, 18% of the Moon is Illuminated
Sep 19
Waning Crescent
Sep 24
New
Oct 1
First Quarter
Oct 8
Full
Oct 15
Last Quarter

Hourly Weather History & Observations

Time (EDT) Temp. Dew Point Humidity Pressure Visibility Wind Dir Wind Speed Gust Speed Precip Events Conditions
12:53 AM 48.0 °F 46.9 °F 96% 30.12 in 8.0 mi Calm Calm - N/A   Clear
1:26 AM 48.9 °F 46.9 °F 93% 30.13 in 1.8 mi Calm Calm - N/A   Clear
1:35 AM 48.9 °F 48.0 °F 97% 30.12 in 3.0 mi Calm Calm - N/A   Clear
1:53 AM 46.9 °F 46.0 °F 97% 30.12 in 7.0 mi Calm Calm - N/A   Clear
2:40 AM 48.9 °F 46.9 °F 93% 30.14 in 1.8 mi Calm Calm - N/A   Clear
2:51 AM 46.4 °F 46.4 °F 100% 30.14 in 3.0 mi Calm Calm - N/A   Clear
2:53 AM 46.9 °F 46.0 °F 97% 30.13 in 5.0 mi Calm Calm - N/A   Clear
3:45 AM 48.0 °F 46.0 °F 93% 30.13 in 2.5 mi Calm Calm - N/A   Clear
3:53 AM 46.9 °F 45.0 °F 93% 30.13 in 5.0 mi Calm Calm - N/A   Clear
4:53 AM 46.9 °F 45.0 °F 93% 30.12 in 10.0 mi SSE 3.5 mph - N/A   Clear
5:53 AM 46.0 °F 44.1 °F 93% 30.13 in 5.0 mi Calm Calm - N/A   Clear
6:53 AM 46.9 °F 45.0 °F 93% 30.14 in 8.0 mi Calm Calm - N/A   Clear
7:53 AM 46.9 °F 45.0 °F 93% 30.15 in 10.0 mi Calm Calm - N/A   Clear
8:53 AM 55.0 °F 48.9 °F 80% 30.17 in 10.0 mi Calm Calm - N/A   Clear
9:53 AM 60.1 °F 50.0 °F 69% 30.17 in 10.0 mi ESE 10.4 mph - N/A   Clear
10:53 AM 64.9 °F 48.9 °F 56% 30.17 in 10.0 mi SE 9.2 mph 18.4 mph N/A   Clear
11:53 AM 68.0 °F 48.9 °F 50% 30.17 in 10.0 mi SE 11.5 mph - N/A   Clear
12:53 PM 70.0 °F 50.0 °F 49% 30.15 in 10.0 mi SE 10.4 mph - N/A   Clear
1:53 PM 72.0 °F 51.1 °F 48% 30.14 in 10.0 mi ESE 9.2 mph - N/A   Clear
2:53 PM 72.0 °F 48.9 °F 44% 30.12 in 10.0 mi ESE 8.1 mph - N/A   Clear
3:53 PM 73.0 °F 46.9 °F 39% 30.09 in 10.0 mi ESE 9.2 mph - N/A   Clear
4:53 PM 73.0 °F 48.9 °F 42% 30.07 in 10.0 mi SE 6.9 mph - N/A   Clear
5:53 PM 73.0 °F 50.0 °F 44% 30.06 in 10.0 mi SSE 5.8 mph - N/A   Clear
6:53 PM 71.1 °F 51.1 °F 49% 30.06 in 10.0 mi SE 3.5 mph - N/A   Clear
7:53 PM 60.1 °F 55.9 °F 86% 30.07 in 10.0 mi Calm Calm - N/A   Clear
8:53 PM 55.9 °F 54.0 °F 93% 30.07 in 9.0 mi Calm Calm - N/A   Clear
10:53 PM 54.0 °F 52.0 °F 93% 30.07 in 4.0 mi Calm Calm - N/A   Clear
11:53 PM 53.1 °F 51.1 °F 93% 30.06 in 3.0 mi Calm Calm - N/A   Clear